Time,TemperatureF,DewpointF,PressureIn,WindDirection,WindDirectionDegrees,WindSpeedMPH,WindSpeedGustMPH,Humidity,HourlyPrecipIn,Conditions,Clouds,dailyrainin,SoftwareType,DateUTC
2013-10-21 00:05:00,37.6,35.8,29.66,South,180,0.0,-999.0,93,-99.99,,,0.00,Acu-Link.com,2013-10-21 04:05:00,
2013-10-21 00:21:00,37.4,35.6,29.65,South,180,0.0,-999.0,93,-99.99,,,0.01,Acu-Link.com,2013-10-21 04:21:00,
2013-10-21 00:36:00,37.4,35.6,29.65,South,180,0.0,-999.0,93,-99.99,,,0.01,Acu-Link.com,2013-10-21 04:36:00,
2013-10-21 00:51:00,37.6,35.8,29.64,South,180,0.0,-999.0,93,-99.99,,,0.02,Acu-Link.com,2013-10-21 04:51:00,
2013-10-21 01:07:00,37.4,35.6,29.64,South,180,0.0,-999.0,93,-99.99,,,0.02,Acu-Link.com,2013-10-21 05:07:00,
2013-10-21 01:22:00,37.6,35.8,29.63,South,180,1.7,-999.0,93,-99.99,,,0.02,Acu-Link.com,2013-10-21 05:22:00,
2013-10-21 01:37:00,37.6,35.8,29.63,WNW,292,0.0,-999.0,93,-99.99,,,0.02,Acu-Link.com,2013-10-21 05:37:00,
2013-10-21 01:52:00,37.6,35.8,29.63,WNW,292,2.7,-999.0,93,-99.99,,,0.02,Acu-Link.com,2013-10-21 05:52:00,
2013-10-21 02:07:00,37.6,35.8,29.63,WNW,292,3.2,-999.0,93,-99.99,,,0.03,Acu-Link.com,2013-10-21 06:07:00,
2013-10-21 02:22:00,37.4,35.3,29.63,West,270,3.2,-999.0,92,-99.99,,,0.03,Acu-Link.com,2013-10-21 06:22:00,
2013-10-21 02:38:00,37.4,35.3,29.63,West,270,3.7,-999.0,92,-99.99,,,0.04,Acu-Link.com,2013-10-21 06:38:00,
2013-10-21 02:53:00,37.2,35.1,29.63,West,270,6.8,-999.0,92,-99.99,,,0.05,Acu-Link.com,2013-10-21 06:53:00,
2013-10-21 03:08:00,37.2,35.1,29.63,West,270,2.7,-999.0,92,-99.99,,,0.06,Acu-Link.com,2013-10-21 07:08:00,
2013-10-21 03:23:00,37.0,35.2,29.64,West,270,0.0,-999.0,93,-99.99,,,0.07,Acu-Link.com,2013-10-21 07:23:00,
2013-10-21 03:38:00,37.0,35.2,29.64,West,270,0.0,-999.0,93,-99.99,,,0.07,Acu-Link.com,2013-10-21 07:38:00,
2013-10-21 03:53:00,36.9,35.1,29.63,West,270,1.1,-999.0,93,-99.99,,,0.07,Acu-Link.com,2013-10-21 07:53:00,
2013-10-21 04:08:00,36.9,35.1,29.64,West,270,3.7,-999.0,93,-99.99,,,0.07,Acu-Link.com,2013-10-21 08:08:00,
2013-10-21 04:23:00,36.7,34.9,29.63,West,270,3.2,-999.0,93,-99.99,,,0.08,Acu-Link.com,2013-10-21 08:23:00,
2013-10-21 04:39:00,36.7,34.6,29.63,West,270,0.0,-999.0,92,-99.99,,,0.08,Acu-Link.com,2013-10-21 08:39:00,
2013-10-21 04:54:00,36.7,34.6,29.63,West,270,2.7,-999.0,92,-99.99,,,0.08,Acu-Link.com,2013-10-21 08:54:00,
2013-10-21 05:09:00,36.7,34.9,29.63,West,270,0.0,-999.0,93,-99.99,,,0.08,Acu-Link.com,2013-10-21 09:09:00,
2013-10-21 05:24:00,37.0,34.9,29.64,West,270,2.7,-999.0,92,-99.99,,,0.08,Acu-Link.com,2013-10-21 09:24:00,
2013-10-21 05:40:00,37.0,34.9,29.64,WNW,292,2.2,-999.0,92,-99.99,,,0.08,Acu-Link.com,2013-10-21 09:40:00,
2013-10-21 05:55:00,37.0,34.9,29.64,West,270,4.2,-999.0,92,-99.99,,,0.08,Acu-Link.com,2013-10-21 09:55:00,
2013-10-21 06:10:00,37.2,34.5,29.64,West,270,6.8,-999.0,90,-99.99,,,0.08,Acu-Link.com,2013-10-21 10:10:00,
2013-10-21 06:25:00,36.9,34.2,29.63,West,270,6.8,-999.0,90,-99.99,,,0.08,Acu-Link.com,2013-10-21 10:25:00,